When you browse on this site, cookies collect data to enhance your experience and personalize the content and advertising you see.
Visit our Privacy Policy to learn more. By continuing to use the site, you agree to this use of cookies and data.
  • In Hungary
  • List of Countries
  • For 7 days
  • Water Temperature
  • Satellite Maps
  • Weather Map
  • News
  • Weather Widgets
  • user-avatar
    Login

    Hourly Weather Porecatu

    Today, 17 January, Thursday

    Time Temperature Precipitation Wind Pressure Humidity
    00:00 +26°C° 0.7 mm 1 mps 725 mmHg 89%
    01:00 +26°C° 0 mm 1 mps 725 mmHg 89%
    02:00 +26°C° 0 mm 1 mps 725 mmHg 89%
    03:00 +25°C° 0 mm 1 mps 725 mmHg 90%
    04:00 +25°C° 0 mm 1 mps 725 mmHg 90%
    05:00 +25°C° 0 mm 1 mps 725 mmHg 90%
    06:00 +25°C° 0 mm 1 mps 725 mmHg 90%
    07:00 +27°C° 0.1 mm 1 mps 726 mmHg 85%
    08:00 +28°C° 0.1 mm 1 mps 726 mmHg 80%
    09:00 +30°C° 0.1 mm 1 mps 726 mmHg 74%
    10:00 +31°C° 0.2 mm 1 mps 726 mmHg 69%
    11:00 +33°C° 0.2 mm 1 mps 726 mmHg 63%
    12:00 +35°C° 0.2 mm 2 mps 726 mmHg 57%
    13:00 +35°C° 0 mm 2 mps 726 mmHg 57%
    14:00 +34°C° 0 mm 1 mps 725 mmHg 56%
    15:00 +34°C° 0 mm 1 mps 725 mmHg 56%
    16:00 +34°C° 0 mm 1 mps 724 mmHg 59%
    17:00 +34°C° 0 mm 1 mps 724 mmHg 62%
    18:00 +34°C° 0 mm 1 mps 724 mmHg 65%
    19:00 +32°C° 0 mm 1 mps 724 mmHg 67%
    20:00 +30°C° 0 mm 1 mps 724 mmHg 69%
    21:00 +27°C° 0 mm 0 mps 724 mmHg 72%
    22:00 +28°C° 0.5 mm 1 mps 724 mmHg 75%
    23:00 +27°C° 0.5 mm 2 mps 725 mmHg 79%

    Tomorrow, 18 January, Friday

    Time Temperature Precipitation Wind Pressure Humidity
    00:00 +27°C° 0.5 mm 2 mps 725 mmHg 83%
    01:00 +27°C° 0.2 mm 2 mps 725 mmHg 84%
    02:00 +26°C° 0.2 mm 2 mps 725 mmHg 85%
    03:00 +26°C° 0.2 mm 2 mps 724 mmHg 86%
    04:00 +26°C° 0 mm 2 mps 724 mmHg 87%
    05:00 +25°C° 0 mm 2 mps 724 mmHg 88%
    06:00 +25°C° 0 mm 2 mps 724 mmHg 88%
    07:00 +26°C° 0 mm 2 mps 724 mmHg 84%
    08:00 +27°C° 0 mm 1 mps 725 mmHg 80%
    09:00 +28°C° 0 mm 1 mps 725 mmHg 76%
    10:00 +30°C° 0 mm 1 mps 725 mmHg 70%
    11:00 +31°C° 0 mm 2 mps 725 mmHg 63%
    12:00 +32°C° 0 mm 2 mps 725 mmHg 56%
    13:00 +32°C° 0.4 mm 2 mps 725 mmHg 58%
    14:00 +33°C° 0.4 mm 3 mps 724 mmHg 61%
    15:00 +33°C° 0.4 mm 4 mps 724 mmHg 63%
    16:00 +31°C° 0.7 mm 3 mps 724 mmHg 68%
    17:00 +30°C° 0.7 mm 2 mps 723 mmHg 74%
    18:00 +29°C° 0.7 mm 2 mps 723 mmHg 79%
    19:00 +28°C° 0 mm 1 mps 723 mmHg 81%
    20:00 +27°C° 0 mm 1 mps 723 mmHg 83%
    21:00 +26°C° 0 mm 1 mps 723 mmHg 85%
    22:00 +26°C° 0 mm 1 mps 723 mmHg 86%
    23:00 +26°C° 0 mm 1 mps 724 mmHg 87%

    Day after tomorrow, 19 January, Saturday

    Time Temperature Precipitation Wind Pressure Humidity
    00:00 +25°C° 0 mm 1 mps 724 mmHg 89%
    01:00 +25°C° 0 mm 1 mps 723 mmHg 89%
    02:00 +24°C° 0 mm 1 mps 722 mmHg 89%
    03:00 +24°C° 0 mm 1 mps 722 mmHg 90%
    04:00 +24°C° 0 mm 1 mps 722 mmHg 90%
    05:00 +24°C° 0 mm 1 mps 722 mmHg 90%
    06:00 +23°C° 0 mm 1 mps 722 mmHg 91%
    07:00 +25°C° 0 mm 1 mps 723 mmHg 84%
    08:00 +27°C° 0 mm 1 mps 723 mmHg 78%
    09:00 +29°C° 0 mm 1 mps 724 mmHg 72%
    10:00 +30°C° 0 mm 1 mps 724 mmHg 67%
    11:00 +31°C° 0 mm 2 mps 724 mmHg 62%
    12:00 +32°C° 0 mm 2 mps 724 mmHg 58%
    13:00 +34°C° 0.1 mm 2 mps 724 mmHg 57%
    14:00 +34°C° 0.1 mm 2 mps 723 mmHg 56%
    15:00 +35°C° 0.1 mm 2 mps 722 mmHg 55%
    16:00 +34°C° 1.2 mm 2 mps 722 mmHg 62%
    17:00 +32°C° 1.2 mm 1 mps 722 mmHg 68%
    18:00 +31°C° 1.2 mm 1 mps 722 mmHg 75%
    19:00 +29°C° 0.2 mm 1 mps 722 mmHg 78%
    20:00 +28°C° 0.2 mm 1 mps 722 mmHg 82%
    21:00 +26°C° 0.2 mm 1 mps 723 mmHg 85%
    22:00 +26°C° 0 mm 1 mps 723 mmHg 86%
    23:00 +26°C° 0 mm 1 mps 723 mmHg 86%

    20 January, Sunday

    Time Temperature Precipitation Wind Pressure Humidity
    00:00 +24°C° 0 mm 0 mps 723 mmHg 87%
    01:00 +25°C° 0.1 mm 1 mps 723 mmHg 88%
    02:00 +25°C° 0.1 mm 1 mps 722 mmHg 89%
    03:00 +25°C° 0.1 mm 1 mps 722 mmHg 90%
    04:00 +25°C° 0 mm 1 mps 722 mmHg 90%
    05:00 +25°C° 0 mm 1 mps 722 mmHg 90%
    06:00 +25°C° 0 mm 2 mps 722 mmHg 91%
    07:00 +26°C° 0.5 mm 2 mps 723 mmHg 87%
    08:00 +27°C° 0.5 mm 2 mps 724 mmHg 83%
    09:00 +29°C° 0.5 mm 3 mps 724 mmHg 80%
    10:00 +30°C° 0.5 mm 3 mps 724 mmHg 73%
    11:00 +31°C° 0.5 mm 3 mps 724 mmHg 67%
    12:00 +34°C° 0.5 mm 3 mps 724 mmHg 60%
    13:00 +34°C° 0.3 mm 3 mps 724 mmHg 59%
    14:00 +34°C° 0.3 mm 3 mps 723 mmHg 58%
    15:00 +35°C° 0.3 mm 3 mps 723 mmHg 57%
    16:00 +33°C° 1.3 mm 3 mps 722 mmHg 65%
    17:00 +31°C° 1.3 mm 2 mps 722 mmHg 73%
    18:00 +30°C° 1.3 mm 1 mps 722 mmHg 81%
    19:00 +29°C° 0.6 mm 1 mps 722 mmHg 82%
    20:00 +28°C° 0.6 mm 1 mps 723 mmHg 83%
    21:00 +27°C° 0.6 mm 1 mps 723 mmHg 85%
    22:00 +26°C° 0.3 mm 1 mps 723 mmHg 86%
    23:00 +26°C° 0.3 mm 1 mps 723 mmHg 88%

    21 January, Monday

    Time Temperature Precipitation Wind Pressure Humidity
    00:00 +25°C° 0.3 mm 2 mps 724 mmHg 89%
    01:00 +25°C° 0.6 mm 2 mps 723 mmHg 90%
    02:00 +25°C° 0.6 mm 2 mps 723 mmHg 92%
    03:00 +25°C° 0.6 mm 2 mps 723 mmHg 93%
    04:00 +24°C° 0.8 mm 2 mps 723 mmHg 93%
    05:00 +24°C° 0.8 mm 2 mps 723 mmHg 94%
    06:00 +24°C° 0.8 mm 2 mps 724 mmHg 94%
    07:00 +26°C° 0.5 mm 2 mps 724 mmHg 89%
    08:00 +27°C° 0.5 mm 2 mps 725 mmHg 84%
    09:00 +29°C° 0.5 mm 2 mps 725 mmHg 79%
    10:00 +30°C° 1 mm 2 mps 725 mmHg 74%
    11:00 +31°C° 1 mm 3 mps 725 mmHg 69%
    12:00 +33°C° 1 mm 4 mps 725 mmHg 64%
    13:00 +34°C° 0.4 mm 4 mps 725 mmHg 64%
    14:00 +34°C° 0.4 mm 3 mps 724 mmHg 63%
    15:00 +34°C° 0.4 mm 3 mps 724 mmHg 63%
    16:00 +33°C° 0.7 mm 3 mps 724 mmHg 67%
    17:00 +31°C° 0.7 mm 2 mps 724 mmHg 71%
    18:00 +31°C° 0.7 mm 1 mps 724 mmHg 76%
    19:00 +30°C° 0.2 mm 1 mps 724 mmHg 77%
    20:00 +28°C° 0.2 mm 1 mps 724 mmHg 79%
    21:00 +27°C° 0.2 mm 1 mps 724 mmHg 81%
    22:00 +27°C° 0.4 mm 1 mps 724 mmHg 83%
    23:00 +26°C° 0.4 mm 1 mps 724 mmHg 86%

    22 January, Tuesday

    Time Temperature Precipitation Wind Pressure Humidity
    00:00 +26°C° 0.4 mm 1 mps 725 mmHg 89%
    01:00 +26°C° 0 mm 1 mps 724 mmHg 89%
    02:00 +25°C° 0 mm 1 mps 724 mmHg 89%
    03:00 +25°C° 0 mm 1 mps 723 mmHg 90%
    04:00 +25°C° 0 mm 1 mps 724 mmHg 90%
    05:00 +25°C° 0 mm 1 mps 724 mmHg 90%
    06:00 +25°C° 0 mm 1 mps 724 mmHg 91%
    07:00 +27°C° 0.2 mm 2 mps 725 mmHg 85%
    08:00 +28°C° 0.2 mm 2 mps 725 mmHg 80%
    09:00 +30°C° 0.2 mm 2 mps 725 mmHg 74%
    10:00 +31°C° 1.5 mm 2 mps 725 mmHg 72%
    11:00 +33°C° 1.5 mm 3 mps 725 mmHg 69%
    12:00 +34°C° 1.5 mm 3 mps 725 mmHg 67%
    13:00 +34°C° 0.8 mm 2 mps 725 mmHg 65%
    14:00 +34°C° 0.8 mm 2 mps 725 mmHg 64%
    15:00 +34°C° 0.8 mm 2 mps 724 mmHg 63%
    16:00 +32°C° 0.3 mm 1 mps 724 mmHg 66%
    17:00 +31°C° 0.3 mm 1 mps 724 mmHg 70%
    18:00 +29°C° 0.3 mm 0 mps 723 mmHg 74%
    19:00 +30°C° 0 mm 1 mps 724 mmHg 75%
    20:00 +29°C° 0 mm 1 mps 724 mmHg 76%
    21:00 +28°C° 0 mm 2 mps 724 mmHg 78%
    22:00 +27°C° 0 mm 2 mps 724 mmHg 79%
    23:00 +27°C° 0 mm 2 mps 724 mmHg 81%
    Show more